Wind_Speed
22 30 31 26 24 25 18 15 16 10 9 10 9 14 14 13 12 12 11 10 10 10 11 12 14 16 17 19 20 22 25 30
26 34 36 36 34 31 25 22 16 13 11 15 15 19 23 19 16 12 11 10 12 14 16 18 19 20 20 21 24 26 30 26
20 29 31 32 27 25 22 20 18 17 16 15 13 10 14 15 10 10 11 12 14 16 19 20 21 23 25 26 24 21 17 15
11 21 27 25 22 19 19 17 15 12 10 9 8 7 7 8 10 11 14 15 17 20 22 21 24 24 21 18 15 13 11 10
13 19 22 21 17 16 13 11 10 10 8 7 7 7 6 6 6 8 12 17 20 21 18 19 20 20 20 16 12 12 12 9
9 17 19 15 13 12 12 12 9 6 6 7 7 9 8 4 4 9 14 17 18 16 15 19 19 16 15 14 15 11 12 13
12 19 17 14 10 10 10 12 11 7 6 6 5 6 5 5 8 12 14 14 12 11 15 19 14 11 13 13 12 17 21 20
8 11 12 9 6 7 8 9 13 10 9 7 5 4 3 5 8 9 9 7 4 9 13 13 11 14 17 19 18 19 21 19
5 6 9 10 9 7 8 9 9 7 6 7 5 4 4 5 4 5 5 4 4 7 8 8 10 13 15 14 14 16 16 17
9 17 17 14 13 10 7 4 3 4 5 4 2 4 6 5 8 10 10 8 8 7 5 9 11 12 14 12 13 14 14 17
8 14 14 12 10 9 7 3 6 5 3 3 9 11 11 13 13 14 13 12 9 7 7 8 9 9 9 11 13 15 14 13
6 12 13 12 9 9 7 6 3 3 9 10 11 14 12 14 17 19 18 15 11 8 8 6 7 7 8 9 10 9 5 6
10 10 10 11 9 10 7 4 8 11 12 14 16 10 12 15 17 22 19 14 13 12 8 8 8 7 9 10 9 4 7 10
5 10 10 12 12 9 4 9 13 14 17 18 13 18 21 23 24 22 17 15 10 10 14 9 8 8 9 9 7 8 9 11
4 7 9 10 7 8 8 13 13 14 15 17 18 21 22 22 19 13 18 18 19 20 11 7 9 10 12 6 8 10 15 19
5 5 7 9 9 9 9 10 13 14 15 12 14 18 19 18 18 21 20 18 13 14 10 11 10 10 8 7 11 17 20 20
4 5 7 11 13 7 9 12 12 12 12 10 12 15 17 18 19 22 17 13 6 9 11 10 6 5 8 14 19 20 18 18
5 7 11 9 9 9 9 9 10 10 3 8 15 21 24 23 21 18 12 5 2 9 9 1 5 8 13 16 16 15 16 17
6 9 9 8 8 10 9 10 7 3 7 12 16 19 21 19 19 13 5 2 4 4 2 5 9 12 13 14 14 15 15 15
Wind_Direction
71 83 92 118 150 156 153 166 168 158 123 126 118 89 70 87 80 78 80 61 43 31 24 12 0 350 342 339 335 330 327 325
80 92 96 100 104 104 108 109 115 129 110 93 81 76 76 80 78 69 54 42 35 23 14 3 359 354 346 339 334 330 325 329
83 91 94 94 100 105 103 98 97 93 93 85 79 85 67 72 69 63 49 30 17 6 360 354 348 343 337 336 336 335 335 340
96 89 90 92 94 96 97 84 71 62 49 30 23 8 26 38 45 38 32 16 5 360 357 360 357 356 357 359 358 353 340 347
114 107 100 98 96 88 80 82 78 66 52 44 47 58 81 82 49 25 9 1 357 354 1 4 357 350 345 349 359 357 357 357
129 127 126 125 116 108 100 103 106 102 92 106 128 125 131 119 32 3 359 358 359 2 1 355 350 348 350 351 351 359 13 3
134 137 136 132 132 132 117 101 103 124 119 114 109 113 102 40 18 3 2 0 356 355 349 348 350 358 1 358 358 347 337 330
141 145 150 148 140 129 109 83 98 101 108 109 103 89 41 359 347 336 321 318 321 337 344 344 347 343 336 333 328 332 332 326
128 111 108 110 96 83 69 70 91 103 106 106 87 54 24 351 304 261 260 231 294 330 342 342 337 336 336 327 325 327 327 323
101 98 97 95 88 84 72 77 127 130 121 105 63 339 314 288 280 285 276 257 287 318 326 328 321 319 326 320 321 319 317 318
80 82 77 68 59 49 39 132 131 114 103 322 307 303 302 288 277 269 261 263 279 293 309 308 300 320 329 323 320 316 315 313
101 85 69 62 53 26 24 117 94 317 301 288 290 304 302 299 285 281 268 269 274 282 299 286 302 321 328 331 327 323 347 349
84 67 46 34 24 21 86 6 334 319 306 296 292 284 294 303 288 286 269 262 263 265 270 276 296 311 321 323 321 311 327 331
64 40 29 17 5 15 358 355 351 339 324 315 317 315 308 301 301 277 263 269 300 314 279 277 303 305 310 306 291 308 322 329
45 28 12 4 9 359 353 360 28 28 21 357 351 344 338 324 327 300 291 269 282 288 267 293 294 294 298 271 305 321 327 327
26 2 339 341 333 316 4 43 21 20 14 13 4 351 350 332 312 304 291 284 267 287 279 299 289 282 271 313 329 328 327 325
319 297 324 315 341 58 35 20 14 3 360 360 3 1 2 351 330 319 281 265 292 299 302 294 289 306 326 338 331 326 323 321
280 303 315 3 86 41 21 359 344 351 14 3 356 356 351 343 333 319 306 301 97 319 306 113 1 352 341 332 325 321 312 314
320 1 41 76 33 9 349 326 336 39 20 5 359 349 342 340 335 338 309 309 332 171 97 22 1 357 343 341 339 334 327 324
Height
822 821 821 823 828 832 834 838 842 845 845 847 849 852 850 850 851 852 852 852 851 852 850 848 845 843 841 839 835 832 830 826
830 830 832 833 835 839 844 845 844 847 848 848 850 851 851 852 852 853 853 852 851 850 848 847 845 843 841 838 834 830 826 823
832 834 836 837 843 845 847 848 848 850 850 851 851 851 852 853 853 852 852 851 850 849 848 846 844 841 837 834 831 828 826 823
834 835 837 842 845 846 846 847 848 848 849 849 850 850 851 852 852 851 851 850 849 848 847 845 843 840 837 834 831 829 827 825
834 836 838 840 842 843 843 844 845 847 848 848 848 850 851 852 852 852 852 850 848 847 845 843 842 840 837 835 832 830 829 825
833 835 837 840 841 842 843 843 844 845 845 847 848 849 849 851 851 851 850 849 846 845 844 842 840 838 837 834 832 829 828 826
835 836 838 840 842 843 843 843 845 845 845 845 845 848 850 850 850 849 847 846 844 843 841 840 838 836 833 832 831 828 825 823
838 837 839 841 843 844 845 846 847 847 847 847 848 848 848 849 848 847 845 843 841 840 839 836 835 834 831 829 827 826 823 820
838 842 844 845 847 847 847 848 849 848 847 846 847 846 846 845 844 842 840 839 837 836 834 831 830 829 827 825 823 822 820 818
845 846 847 849 849 849 849 848 848 847 847 847 846 845 844 842 839 838 837 835 833 831 830 828 827 824 823 821 819 817 816 814
847 848 849 851 851 851 848 848 848 848 848 847 845 843 841 839 836 834 832 831 828 826 825 824 824 822 818 818 816 814 813 811
851 851 852 852 851 849 847 848 848 847 845 844 842 839 837 836 833 831 828 826 825 823 822 820 819 817 815 814 812 809 809 807
851 853 851 849 848 847 846 847 846 844 843 841 838 836 833 831 829 827 824 822 818 818 815 816 815 813 812 810 808 805 805 803
850 849 848 847 846 846 847 846 844 842 841 839 837 835 832 828 825 822 821 822 821 820 816 812 813 812 808 806 804 801 801 799
849 848 848 848 847 846 844 843 842 840 838 836 834 831 828 826 823 823 820 817 815 816 811 809 810 808 807 802 799 799 797 796
849 848 848 846 845 844 844 842 840 838 836 834 832 830 827 823 821 819 815 811 812 811 809 808 806 805 804 799 796 795 793 791
849 848 846 844 844 843 842 841 839 837 834 832 831 828 824 821 818 814 809 807 806 810 807 805 804 803 802 797 794 792 790 787
847 844 843 843 842 842 841 839 837 835 832 830 827 823 820 817 814 810 808 805 805 806 806 804 803 802 799 795 792 789 787 784
844 843 842 842 842 841 839 837 834 832 830 827 823 821 817 814 811 807 806 806 804 804 803 803 802 799 795 792 789 787 784 781